Theta_e
325 327 328 330 332 332 333 334 331 333 330 333 334 334 333 335 337 339 338 335 332 330 329 326 325 324 323 323 324 326 326 326 322 325 328 332 334 334 328 332 327 325 319
324 326 326 329 331 332 333 336 334 334 329 329 333 333 333 334 336 336 334 334 331 329 327 327 325 326 324 324 324 330 333 330 325 324 327 327 328 334 329 334 329 325 325
322 325 326 328 330 331 332 332 336 335 331 329 330 329 332 334 334 336 335 334 334 334 330 327 329 326 325 326 328 327 332 332 330 324 323 327 326 329 330 333 332 335 327
320 322 325 327 329 331 330 330 332 334 335 333 330 330 330 331 335 335 335 337 336 333 331 333 333 330 332 334 333 327 332 331 332 325 323 323 325 330 329 325 323 325 323
318 320 325 326 328 332 330 330 330 330 330 332 332 331 330 329 331 334 336 337 335 335 335 333 336 329 321 324 328 333 334 329 324 323 320 321 321 323 323 325 324 326 327
319 318 323 324 325 328 330 329 329 327 326 327 327 326 328 321 305 313 328 334 333 332 329 329 327 322 315 310 312 312 325 336 332 323 321 322 330 328 326 323 323 322 318
320 319 319 323 323 325 326 325 326 329 330 328 327 327 325 322 303 307 317 333 333 334 333 331 324 321 322 326 311 309 310 310 315 334 332 330 332 334 335 333 330 327 323
320 319 318 319 322 324 325 326 330 331 331 329 326 326 326 313 302 306 313 336 335 334 332 331 331 329 325 324 324 324 325 326 328 327 333 335 336 338 338 335 336 333 329
319 320 318 317 320 323 324 328 332 331 332 329 327 326 325 320 300 300 308 330 328 327 326 327 328 327 305 305 324 324 324 323 300 302 301 298 297 297 305 324 321 320 319
320 321 320 318 320 322 327 330 332 331 329 326 326 327 318 324 298 297 304 319 323 320 322 321 303 315 299 300 326 327 324 325 319 315 319 314 303 312 299 312 317 312 314
321 321 321 321 323 327 332 334 331 329 328 329 325 327 326 325 315 296 296 317 316 314 313 313 313 297 296 295 295 326 318 316 316 320 320 320 322 323 319 319 320 313 309
321 321 321 323 321 323 331 330 328 330 329 327 326 324 323 325 312 296 295 294 302 318 317 315 311 295 295 295 299 297 297 300 313 315 317 317 318 318 321 321 324 321 319
322 322 323 323 321 324 328 329 323 328 321 321 319 319 318 321 323 300 295 294 297 318 319 302 294 292 293 294 293 294 292 311 313 314 316 320 321 322 324 323 325 321 313
323 325 326 325 322 326 324 325 322 321 320 318 317 317 317 318 320 319 313 309 297 307 306 312 309 305 302 305 307 301 308 312 314 317 319 321 322 320 316 311 311 309 308
328 326 327 324 325 325 325 323 321 326 320 319 320 318 320 319 318 314 312 315 316 312 316 319 317 316 314 315 316 317 319 319 319 323 321 318 312 309 308 309 307 307 306
329 325 323 322 323 320 321 321 304 304 302 299 298 309 319 307 299 298 300 300 299 298 312 318 319 320 319 319 319 320 322 317 320 318 313 307 305 303 302 303 303 304 305
330 328 324 319 322 320 319 318 317 310 298 298 295 297 301 299 296 297 295 294 294 298 315 317 319 321 320 320 323 324 314 312 310 305 304 304 303 304 303 303 305 304 304
332 310 326 325 323 322 321 319 318 317 316 317 298 305 297 295 294 293 293 298 307 303 316 318 320 320 321 323 321 312 309 306 306 305 305 304 304 304 304 303 302 302 301
332 327 326 326 324 321 323 321 319 318 317 317 318 302 297 292 291 291 293 314 314 316 317 320 322 324 320 313 311 309 306 306 306 305 307 306 304 303 302 302 301 293 295
332 317 318 326 325 324 323 321 320 321 321 319 318 316 310 304 309 309 309 313 318 322 321 323 320 317 313 310 309 309 306 305 306 304 303 302 303 303 302 302 301 300 299
328 329 312 325 325 324 324 324 323 322 321 320 321 317 301 313 314 314 314 320 324 324 321 315 311 308 311 309 308 305 304 303 302 302 302 302 303 301 302 301 301 300 299
329 328 328 326 327 325 325 324 324 322 322 321 319 308 294 321 322 323 324 324 321 314 313 313 311 311 307 304 304 303 301 300 301 302 302 302 301 301 300 301 299 299 298
328 328 327 328 328 318 324 325 324 324 323 323 321 317 318 324 323 318 313 313 312 313 312 310 307 305 305 303 303 302 301 300 301 301 300 300 300 300 300 301 298 297 297
328 327 327 327 326 325 325 325 323 310 321 325 323 321 322 318 314 312 312 313 311 309 306 304 303 300 300 300 301 301 302 301 301 301 302 300 300 298 299 298 297 296 297
328 328 327 327 325 324 325 324 325 324 324 321 320 317 316 315 315 313 309 306 303 301 299 299 300 300 300 300 299 297 289 286 294 288 300 301 299 299 298 296 295 296 296
326 327 327 327 325 324 324 324 324 323 319 320 318 316 315 312 309 305 304 301 300 298 297 299 300 300 300 299 296 287 286 286 291 285 297 300 298 297 294 293 293 293 292
Wind_Speed
6 5 5 6 7 6 7 9 8 9 6 7 8 9 9 11 11 11 11 12 13 10 9 9 9 8 6 5 4 6 6 4 6 2 8 7 7 6 8 8 9 7 8
7 7 6 6 7 7 9 11 11 9 7 5 7 8 9 10 8 12 13 12 12 11 11 10 11 7 9 8 5 6 6 8 8 8 7 7 6 6 8 6 6 8 10
9 9 7 7 7 9 7 10 10 12 9 5 6 9 8 9 10 9 12 12 13 14 14 13 13 11 10 9 8 5 5 3 7 8 8 7 7 6 7 4 3 5 1
9 9 9 8 8 9 9 9 10 10 13 11 4 7 6 7 11 12 13 13 13 12 13 14 14 15 13 12 12 8 8 6 7 7 8 7 6 6 6 7 6 6 7
10 11 10 9 9 8 9 9 9 9 10 12 9 7 8 5 7 10 12 11 12 13 11 12 9 8 9 3 7 6 6 6 7 7 8 8 7 8 8 7 7 6 8
10 12 11 11 10 9 9 9 8 9 9 10 11 10 9 8 10 9 10 10 11 9 9 10 9 12 12 11 14 12 2 6 6 6 7 7 7 6 6 7 6 7 8
11 12 13 12 12 11 10 10 9 7 6 7 8 11 10 8 9 9 6 8 9 9 9 10 10 9 10 9 9 10 9 10 8 3 3 3 4 6 5 7 8 7 8
13 13 13 13 13 12 11 11 9 7 7 7 8 9 10 6 5 7 7 9 8 8 7 7 9 8 7 9 9 8 7 4 3 3 2 3 3 4 4 5 6 7 9
14 13 13 14 14 13 12 11 9 9 8 8 7 7 8 7 3 2 4 8 8 8 7 6 8 8 4 4 9 8 8 7 5 4 4 2 2 3 3 5 7 9 9
15 14 14 14 14 14 12 11 9 9 9 8 8 7 5 7 5 1 4 5 7 6 6 6 9 7 7 6 4 6 6 6 6 5 4 3 3 4 1 4 8 9 9
15 15 14 13 13 12 11 10 9 9 9 8 9 8 8 8 7 6 5 6 8 7 8 7 7 9 7 4 5 2 3 6 3 3 5 6 6 6 7 8 5 6 9
16 16 15 13 11 11 11 10 11 9 8 8 8 8 7 8 11 9 9 3 7 5 6 6 8 11 7 4 2 7 9 6 5 6 6 6 6 6 4 5 5 4 6
17 16 15 15 13 13 13 11 10 10 9 10 9 9 9 9 9 11 8 4 4 4 7 9 14 9 7 2 5 3 2 4 5 6 6 6 6 6 5 5 5 5 6
17 15 14 14 13 13 11 11 11 11 11 11 11 10 9 10 10 9 8 6 3 3 7 7 9 5 7 3 4 6 5 5 5 6 7 6 6 7 8 8 5 7 7
15 14 14 13 13 12 12 12 12 11 11 11 10 10 10 10 11 13 12 11 10 9 7 6 6 6 7 7 7 7 7 7 5 3 6 6 5 4 4 4 5 6 7
15 15 14 13 14 12 12 11 7 2 14 4 12 1 9 4 15 16 16 13 14 13 7 7 8 8 9 8 8 8 5 4 5 3 4 5 4 4 4 5 4 4 7
16 15 13 14 14 13 13 12 12 3 8 5 11 9 8 11 15 16 15 13 9 12 8 9 9 7 5 4 2 5 8 8 7 5 4 2 3 2 6 6 7 7 9
18 15 14 14 14 14 13 13 12 13 13 11 6 6 11 11 12 14 14 12 5 5 9 9 5 4 4 5 6 9 8 6 4 3 3 2 1 3 6 8 9 10 10
16 15 15 13 14 14 13 14 14 14 14 13 11 5 8 8 9 8 13 9 10 10 9 8 5 6 7 8 7 7 7 6 4 0 2 2 6 8 7 8 8 7 8
16 18 14 13 13 14 14 14 14 13 12 14 13 13 11 8 8 9 9 9 10 8 7 9 7 8 9 9 8 8 5 1 3 2 5 6 5 5 6 7 8 9 10
13 14 10 13 14 13 13 13 13 12 11 12 13 14 18 15 13 12 13 13 8 8 10 10 11 10 9 7 8 6 5 7 4 4 4 3 3 5 6 6 7 7 8
12 13 15 16 14 13 13 12 10 10 10 11 8 10 13 11 12 11 9 9 9 12 10 11 10 11 10 6 4 9 7 4 4 3 3 5 4 5 6 6 8 8 9
11 13 13 14 14 11 9 13 11 10 8 11 12 13 13 10 11 12 11 11 11 11 11 11 11 11 9 8 7 6 7 5 4 3 4 3 3 5 6 5 8 9 10
11 11 11 12 13 13 12 9 10 8 6 13 13 13 11 12 13 14 13 12 12 12 12 11 10 10 9 8 6 5 6 5 3 3 4 4 4 4 6 7 9 11 8
11 11 11 10 10 10 10 10 7 8 11 12 11 11 14 15 14 13 13 12 13 12 11 10 8 11 13 11 11 10 6 8 8 6 5 4 6 8 9 9 10 8 10
8 6 7 7 9 11 11 12 12 12 13 11 12 14 15 14 14 14 13 14 13 11 12 10 11 12 12 12 12 7 6 7 6 5 5 6 6 8 9 9 12 9 12
Wind_Direction
143 129 123 99 100 98 86 77 87 97 76 97 110 105 103 113 130 123 125 129 125 127 117 112 107 123 125 124 135 142 158 203 140 181 140 171 174 198 156 228 147 176 173
156 134 128 118 106 101 93 94 104 96 84 81 91 107 107 112 124 135 132 135 132 129 117 126 134 143 142 148 183 195 201 172 157 158 139 155 182 175 164 219 184 193 189
160 141 136 129 111 107 90 101 116 119 127 89 96 98 111 121 135 135 134 144 145 150 146 147 154 160 162 176 188 207 180 167 136 165 159 168 167 167 169 210 230 286 51
164 151 143 140 125 129 124 119 111 116 128 130 114 99 99 104 119 128 123 127 139 143 148 157 158 171 189 185 185 191 179 154 154 147 167 158 162 155 195 202 210 235 233
167 152 153 150 140 140 131 121 111 116 114 126 132 131 125 89 109 122 118 127 132 137 143 156 155 133 99 78 144 170 152 157 168 160 167 163 187 168 215 221 231 221 203
170 156 166 162 154 143 139 131 128 126 129 126 128 100 82 77 18 49 114 119 117 102 98 107 118 104 86 74 81 74 49 146 175 167 162 190 179 192 206 230 232 237 243
179 160 168 169 162 158 155 146 135 128 130 124 114 109 97 83 24 40 95 112 110 114 124 141 130 121 125 115 92 99 74 67 45 358 14 164 169 204 239 207 243 252 248
186 169 169 176 168 168 167 154 145 149 143 142 137 129 118 96 30 25 40 118 127 118 128 131 112 144 116 143 153 149 151 150 163 219 212 260 276 279 227 244 275 262 267
187 177 174 177 173 173 173 162 162 166 164 166 153 148 140 130 115 25 338 156 136 137 139 131 149 148 112 36 169 163 162 150 148 99 77 77 25 350 350 293 249 245 257
188 181 178 178 176 176 175 166 172 176 176 182 168 170 142 147 155 262 295 171 150 149 149 137 58 121 130 59 180 159 168 170 196 170 206 234 245 261 324 275 289 283 292
187 182 177 176 175 175 167 166 174 191 176 205 175 171 170 163 163 198 250 279 162 172 160 163 141 130 123 78 12 59 44 331 111 295 277 250 231 227 224 200 215 274 288
188 182 177 170 181 170 170 172 181 192 181 194 182 184 187 184 145 201 229 180 341 175 159 156 124 136 127 91 352 57 37 346 279 278 273 269 274 277 298 21 5 303 294
190 182 175 171 190 166 175 176 183 186 193 192 193 198 188 182 166 168 207 209 309 8 55 65 109 110 117 159 251 129 209 245 268 280 284 292 314 41 6 309 331 317 270
190 181 174 175 186 170 181 181 194 185 201 195 191 193 190 175 177 170 188 185 234 224 138 136 127 134 196 222 181 186 234 261 293 320 331 335 344 352 37 25 349 332 323
184 180 181 183 186 174 195 186 199 185 202 192 193 192 188 184 187 167 176 183 190 207 184 178 191 198 208 209 218 218 200 185 209 18 28 15 35 20 352 334 312 288 266
184 182 185 189 178 190 196 191 199 5 192 152 57 231 183 178 151 146 158 171 174 164 206 204 210 213 213 216 210 196 134 75 49 32 71 45 10 354 320 297 239 280 314
189 185 189 201 184 199 192 202 192 152 52 102 91 65 64 128 124 124 122 112 136 150 217 210 228 227 208 216 163 93 94 75 71 79 71 5 299 290 309 330 317 322 335
186 188 199 194 198 196 197 199 202 194 197 201 129 139 129 129 124 126 126 123 149 214 228 245 197 173 201 152 108 95 103 109 103 77 61 44 335 278 312 337 349 355 346
184 194 200 199 212 195 203 201 206 203 194 199 177 164 144 100 102 123 162 197 205 202 204 199 174 131 100 89 108 110 93 95 90 48 255 344 10 1 1 353 346 334 341
194 196 201 215 195 216 203 204 206 208 203 188 178 185 160 150 176 182 199 219 233 211 167 123 110 113 112 126 106 99 89 204 159 90 35 31 12 4 356 354 352 352 351
200 189 216 206 226 200 215 211 204 205 210 213 169 160 165 177 182 185 193 200 178 134 122 132 123 119 109 121 128 122 158 94 63 37 54 34 8 11 358 356 344 334 336
203 206 189 217 216 222 204 208 211 197 196 213 105 135 170 195 171 166 162 134 127 119 130 115 131 120 123 144 144 115 84 86 78 55 35 37 12 23 340 345 341 342 340
203 205 208 194 217 221 209 204 206 209 190 128 133 152 180 164 142 127 118 114 126 125 128 128 126 122 104 88 82 102 118 105 92 16 37 31 350 25 330 340 340 344 346
209 205 209 192 203 209 221 194 187 199 216 138 145 165 151 126 120 129 134 141 132 124 111 104 96 102 103 89 93 96 74 41 61 58 334 9 3 347 323 349 349 342 327
247 192 202 196 193 205 199 202 186 191 135 138 156 134 131 134 133 131 128 121 110 114 109 112 109 114 115 120 101 100 69 44 41 338 306 347 347 339 0 4 338 331 339
242 166 188 181 207 192 186 183 170 150 151 151 129 124 134 139 133 130 132 132 122 117 123 114 109 118 127 108 106 92 70 49 27 356 326 321 359 3 11 335 347 353 349